TimeEST,TemperatureF,Dew PointF,Humidity,Sea Level PressureIn,VisibilityMPH,Wind Direction,Wind SpeedMPH,Gust SpeedMPH,PrecipitationIn,Events,Conditions,WindDirDegrees,DateUTC
12:54 AM,37.9,30.9,76,29.91,10.0,East,9.2,-,N/A,,Partly Cloudy,90,2013-03-06 05:54:00
1:54 AM,39.0,32.0,76,29.86,10.0,East,15.0,-,N/A,,Overcast,80,2013-03-06 06:54:00
2:54 AM,39.9,32.0,73,29.82,10.0,East,16.1,-,N/A,,Overcast,80,2013-03-06 07:54:00
3:54 AM,41.0,32.0,70,29.81,10.0,East,18.4,31.1,N/A,,Overcast,80,2013-03-06 08:54:00
4:09 AM,39.9,33.1,77,29.81,10.0,East,18.4,26.5,0.00,Rain,Light Rain,80,2013-03-06 09:09:00
4:54 AM,39.0,34.0,82,29.78,10.0,ENE,23.0,35.7,0.02,Rain,Light Rain,70,2013-03-06 09:54:00
5:54 AM,39.0,35.1,86,29.75,10.0,ENE,25.3,39.1,0.07,Rain,Light Rain,70,2013-03-06 10:54:00
6:54 AM,39.9,35.1,83,29.74,10.0,ENE,25.3,34.5,0.00,Rain,Light Rain,60,2013-03-06 11:54:00
7:54 AM,39.9,35.1,83,29.73,10.0,ENE,29.9,43.7,0.02,,Overcast,70,2013-03-06 12:54:00
8:54 AM,39.9,35.1,83,29.70,8.0,ENE,32.2,43.7,0.03,Rain,Light Rain,60,2013-03-06 13:54:00
9:54 AM,39.9,35.1,83,29.68,6.0,ENE,28.8,47.2,0.04,Rain,Light Rain,60,2013-03-06 14:54:00
10:54 AM,39.9,36.0,86,29.66,10.0,ENE,29.9,42.6,0.02,Rain,Light Rain,60,2013-03-06 15:54:00
11:54 AM,39.9,35.1,83,29.63,7.0,NE,33.4,49.5,0.00,Rain,Light Rain,50,2013-03-06 16:54:00
12:37 PM,39.9,35.1,83,29.62,2.5,NE,34.5,50.6,0.05,Rain,Rain,50,2013-03-06 17:37:00
12:49 PM,39.2,35.6,87,29.60,3.0,NE,33.4,51.8,0.07,Rain,Rain,50,2013-03-06 17:49:00
12:54 PM,39.0,35.1,86,29.61,4.0,NE,29.9,51.8,0.08,Rain,Light Rain,50,2013-03-06 17:54:00
1:54 PM,39.0,35.1,86,29.61,5.0,NE,32.2,51.8,0.00,Rain,Light Rain,40,2013-03-06 18:54:00
2:54 PM,39.0,35.1,86,29.62,4.0,NE,34.5,52.9,0.02,Rain,Light Rain,50,2013-03-06 19:54:00
3:28 PM,37.9,34.0,86,29.62,5.0,NNE,26.5,51.8,0.02,Rain,Light Rain,30,2013-03-06 20:28:00
3:54 PM,37.9,34.0,86,29.64,10.0,NNE,28.8,47.2,0.03,Rain,Light Rain,30,2013-03-06 20:54:00
4:54 PM,37.0,33.1,86,29.67,4.0,NNE,31.1,49.5,0.07,Rain,Light Rain,30,2013-03-06 21:54:00
5:54 PM,37.0,33.1,86,29.71,7.0,NNE,32.2,47.2,0.08,Rain,Light Rain,30,2013-03-06 22:54:00
6:16 PM,37.0,33.1,86,29.72,7.0,NNE,26.5,39.1,0.03,Rain,Light Rain,30,2013-03-06 23:16:00
6:28 PM,37.0,33.1,86,29.74,7.0,NNE,23.0,34.5,0.05,Rain,Rain,20,2013-03-06 23:28:00
6:54 PM,37.0,33.1,86,29.75,10.0,NNE,20.7,39.1,0.09,Rain,Light Rain,30,2013-03-06 23:54:00
7:54 PM,36.0,32.0,86,29.78,6.0,NNE,20.7,38.0,0.08,Rain,Light Rain,20,2013-03-07 00:54:00
8:54 PM,35.1,32.0,89,29.80,7.0,North,26.5,33.4,0.08,Rain,Light Rain,10,2013-03-07 01:54:00
9:54 PM,34.0,30.9,89,29.82,4.0,North,21.9,32.2,0.05,Snow,Light Snow,360,2013-03-07 02:54:00
10:02 PM,34.0,30.9,89,29.81,6.0,North,25.3,31.1,0.00,Snow,Light Snow,360,2013-03-07 03:02:00
10:14 PM,34.0,30.9,89,29.81,6.0,North,23.0,34.5,0.01,Snow,Light Snow,360,2013-03-07 03:14:00
10:25 PM,35.1,30.9,85,29.81,8.0,North,24.2,31.1,0.01,Snow,Light Snow,360,2013-03-07 03:25:00
10:54 PM,35.1,32.0,89,29.83,9.0,North,19.6,32.2,0.02,Snow,Light Snow,360,2013-03-07 03:54:00
11:54 PM,33.1,30.9,92,29.83,2.5,North,19.6,28.8,0.03,Snow,Light Snow,360,2013-03-07 04:54:00